This demonstration page uses our WeatherBlox Daily Observations layout. Learn more.

Left ArrowRight Arrow

Hourly Observations for January 28, 2020

Temp ( °F °C ) Dew Point ( °F °C ) Humidity (%) Winds ( mph kmh ) Pressure ( in mb ) Visibility ( mi km ) Precip ( " mm )
12:53 am 00:53 Cloudy with Mist and Fog 28 -2.2 26 -3.3 92 92 E 7 11 30.16 1021 6 10 0.00 0.00
1:53 am 01:53 Cloudy with Mist and Fog 28 -2.2 27 -2.8 96 96 ENE 6 9 30.16 1021 4 6 0.00 0.00
2:53 am 02:53 Cloudy 28 -2.2 27 -2.8 96 96 E 3 6 30.16 1022 7 11 0.00 0.00
3:23 am 03:23 Cloudy 28 -2.2 26 -3.3 92 92 Calm 30.21 1023 10 16 0.00 0.00
3:53 am 03:53 Cloudy 28 -2.2 26 -3.3 92 92 Calm 30.16 1021 8 13 0.00 0.00
4:22 am 04:22 Cloudy 28 -2.2 26 -3.3 92 92 Calm 30.20 1023 10 16 0.00 0.00
4:53 am 04:53 Cloudy 29 -1.7 26 -3.3 89 89 Calm 30.16 1021 10 16 0.00 0.00
5:53 am 05:53 Cloudy 29 -1.7 27 -2.8 92 92 Calm 30.15 1021 7 11 0.00 0.00
6:53 am 06:53 Cloudy 29 -1.7 27 -2.8 92 92 E 3 6 30.14 1021 8 13 0.00 0.00
7:50 am 07:50 Cloudy with Mist and Fog 28 -2 27 -3 93 93 E 3 6 30.19 1022 5 8 0.00 0.00
7:53 am 07:53 Cloudy with Mist and Fog 29 -1.7 27 -2.8 92 92 E 3 6 30.15 1021 5 8 0.00 0.00
8:53 am 08:53 Cloudy with Mist and Fog 29 -1.7 27 -2.8 92 92 E 3 6 30.15 1021 3 5 0.00 0.00
9:53 am 09:53 Cloudy with Mist and Fog 30 -1.1 27 -2.8 88 88 NE 3 6 30.15 1021 4 6 0.00 0.00
10:24 am 10:24 Cloudy with Mist and Fog 30 -1 28 -2 93 93 Calm 30.19 1022 4 6 0.00 0.00
10:53 am 10:53 Cloudy with Mist and Fog 30 -1.1 28 -2.2 92 92 Calm 30.16 1021 3 5 0.00 0.00
11:42 am 11:42 Cloudy with Light Snow 30 -1 27 -3 86 86 Calm 30.19 1022 3 4 0.00 0.00
11:53 am 11:53 Cloudy with Light Snow 31 -0.6 28 -2.2 89 89 Calm 30.15 1021 3 5 0.00 0.00
12:23 pm 12:23 Cloudy with Light Snow 31 -0.6 28 -2.2 89 89 S 5 7 30.18 1022 2 3 0.00 0.00
12:45 pm 12:45 Cloudy with Light Snow 31 -0.6 28 -2.2 89 89 S 5 7 30.17 1022 1 1 0.00 0.00
12:53 pm 12:53 Cloudy with Light Snow 31 -0.6 28 -2.2 89 89 S 6 9 30.14 1021 1 2 0.00 0.00
1:01 pm 13:01 Cloudy with Light Snow 31 -0.6 28 -2.2 89 89 S 6 9 30.17 1022 1 2 0.00 0.00
1:14 pm 13:14 Cloudy with Light Snow 31 -0.6 28 -2.2 89 89 S 7 11 30.16 1021 1 2 0.00 0.00
1:37 pm 13:37 Cloudy with Light Snow 30 -1 28 -2 93 93 S 5 7 30.15 1021 1 2 0.00 0.00
1:53 pm 13:53 Cloudy with Light Snow 31 -0.6 29 -1.7 92 92 S 3 6 30.11 1020 1 2 0.01 0.25
2:22 pm 14:22 Cloudy with Light Snow 32 0 28 -2 87 87 SSW 3 6 30.14 1020 2 2 0.00 0.00
2:34 pm 14:34 Cloudy with Light Snow 32 0 28 -2.2 85 85 WSW 5 7 30.14 1020 3 4 0.00 0.00
2:40 pm 14:40 Cloudy with Light Snow 32 0 28 -2 87 87 SW 5 7 30.14 1020 3 5 0.00 0.00
2:48 pm 14:48 Cloudy with Light Snow 32 0 28 -2 87 87 VRB 3 6 30.13 1020 2 3 0.00 0.00
2:51 pm 14:51 Cloudy with Light Snow 32 0 28 -2 87 87 Calm 30.13 1020 2 3 0.00 0.00
2:53 pm 14:53 Cloudy with Light Snow 32 0 29 -1.7 88 88 VRB 3 6 30.10 1019 2 3 0.00 0.00
3:01 pm 15:01 Cloudy with Light Snow 32 0 28 -2.2 85 85 Calm 30.13 1020 2 2 0.00 0.00
3:18 pm 15:18 Cloudy with Light Snow 32 0 29 -1.7 88 88 SW 3 6 30.13 1020 1 2 0.00 0.00
3:44 pm 15:44 Cloudy with Light Snow 32 0 28 -2.2 85 85 Calm 30.13 1020 2 3 0.01 0.25
3:53 pm 15:53 Cloudy with Light Snow 32 0 29 -1.7 88 88 SW 3 6 30.10 1019 3 5 0.01 0.25
4:16 pm 16:16 Cloudy with Light Snow 32 0 28 -2.2 85 85 WSW 3 6 30.13 1020 2 3 0.00 0.00
4:20 pm 16:20 Cloudy with Light Snow 32 0 29 -1.7 88 88 WSW 3 6 30.13 1020 1 2 0.00 0.00
4:53 pm 16:53 Cloudy with Light Snow 32 0 29 -1.7 88 88 Calm 30.09 1019 2 2 0.00 0.00
5:07 pm 17:07 Cloudy with Light Snow 32 0 30 -1.1 92 92 Calm 30.12 1020 2 3 0.00 0.00
5:14 pm 17:14 Cloudy with Light Snow 32 0 30 -1.1 92 92 Calm 30.12 1020 3 4 0.00 0.00
5:33 pm 17:33 Cloudy with Light Snow 32 0 29 -1.7 88 88 Calm 30.13 1020 2 3 0.00 0.00
5:53 pm 17:53 Cloudy with Light Snow 31 -0.6 30 -1.1 96 96 Calm 30.10 1019 2 3 0.01 0.25
6:00 pm 18:00 Cloudy with Light Snow 30 -1 30 -1 100 100 Calm 30.13 1020 3 5 0.00 0.00
6:13 pm 18:13 Cloudy with Light Snow 31 -0.6 30 -1.1 96 96 Calm 30.13 1020 3 4 0.00 0.00
6:25 pm 18:25 Cloudy with Light Snow 31 -0.6 30 -1.1 96 96 Calm 30.14 1021 2 2 0.00 0.00
6:37 pm 18:37 Cloudy with Light Snow 31 -0.6 30 -1.1 96 96 Calm 30.14 1021 2 3 0.00 0.00
6:53 pm 18:53 Cloudy with Light Snow 32 0 30 -1.1 92 92 Calm 30.11 1020 1 2 0.01 0.25
7:36 pm 19:36 Cloudy with Light Snow 31 -0.6 30 -1.1 96 96 Calm 30.14 1021 2 3 0.01 0.25
7:44 pm 19:44 Cloudy with Light Snow 30 -1 30 -1 100 100 Calm 30.14 1021 2 3 0.00 0.00
7:53 pm 19:53 Cloudy with Light Snow 31 -0.6 30 -1.1 96 96 Calm 30.11 1020 3 4 0.01 0.25
8:05 pm 20:05 Cloudy with Light Snow 31 -0.6 30 -1.1 96 96 Calm 30.14 1021 3 5 0.00 0.00
8:25 pm 20:25 Cloudy with Light Snow 31 -0.6 29 -1.7 92 92 Calm 30.14 1021 3 5 0.00 0.00
8:40 pm 20:40 Mostly Cloudy with Mist and Fog 30 -1 28 -2 93 93 S 5 7 30.14 1021 4 6 0.00 0.00
8:48 pm 20:48 Mostly Cloudy with Mist and Fog 30 -1 28 -2 93 93 SSW 3 6 30.14 1021 3 5 0.00 0.00
8:53 pm 20:53 Mostly Cloudy with Mist and Fog 29 -1.7 28 -2.2 96 96 Calm 30.12 1020 1 2 0.00 0.00
8:56 pm 20:56 Mostly Cloudy with Mist and Fog 29 -1.7 28 -2.2 96 96 SW 3 6 30.16 1021 1 1 0.00 0.00
9:05 pm 21:05 Mostly Cloudy with Freezing Fog 30 -1.1 29 -1.7 96 96 Calm 30.15 1021 1 1 0.00 0.00
9:17 pm 21:17 Cloudy with Mist and Fog 30 -1.1 29 -1.7 96 96 Calm 30.15 1021 2 3 0.00 0.00
9:39 pm 21:39 Mostly Cloudy with Freezing Fog 31 -0.6 30 -1.1 96 96 SW 3 6 30.15 1021 1 1 0.00 0.00
9:53 pm 21:53 Mostly Cloudy with Mist and Fog 31 -0.6 30 -1.1 96 96 Calm 30.12 1020 1 1 0.00 0.00
10:05 pm 22:05 Cloudy with Mist and Fog 31 -0.6 30 -1.1 96 96 Calm 30.16 1021 1 2 0.00 0.00
10:14 pm 22:14 Cloudy with Mist and Fog 31 -0.6 30 -1.1 96 96 Calm 30.16 1021 3 5 0.00 0.00
10:22 pm 22:22 Cloudy with Mist and Fog 30 -1 30 -1 100 100 Calm 30.15 1021 4 6 0.00 0.00
10:41 pm 22:41 Cloudy with Mist and Fog 31 -0.6 30 -1.1 96 96 Calm 30.16 1021 3 4 0.00 0.00
10:48 pm 22:48 Cloudy with Mist and Fog 30 -1 30 -1 100 100 SW 3 6 30.16 1021 4 6 0.00 0.00
10:53 pm 22:53 Cloudy with Mist and Fog 31 -0.6 30 -1.1 96 96 SW 3 6 30.12 1020 4 6 0.00 0.00
11:21 pm 23:21 Cloudy with Mist and Fog 31 -0.6 30 -1.1 96 96 Calm 30.16 1021 4 6 0.00 0.00
11:31 pm 23:31 Cloudy with Mist and Fog 31 -0.6 30 -1.1 96 96 Calm 30.16 1021 5 8 0.00 0.00
11:53 pm 23:53 Cloudy with Light Snow 31 -0.6 30 -1.1 96 96 Calm 30.13 1020 3 5 0.00 0.00

Powered by AerisWeather